Content
SEND FEEDBACK

Daily
Averages
Monthly
Summary
United States of America

ASHEVILLE, NORTH CAROLINA


Home > North America > United States > North Carolina
Elevation: 2240 feet     Latitude: 35 36N     Longitude: 082 32W

WEATHER
 
SELECT A DAY
Number of Records: 228,757;   Date Range: 1/1/95 - 9/30/14
 
SHARE

PRINT THIS DATA

[ ← Previous Day ]
WEATHER ALMANAC - OCTOBER 5, 2013
[ Next Day → ]
[ °C ]   °F
Weather ElementAverageHighLow
Temperature62.4 °F80.1 °F (1:54 pm)57 °F (4:54 am)
Dewpoint59.1 °F63 °F (6:54 pm)57 °F (4:54 am)
Humidity90.8 %100 % (2:23 am)47 % (1:54 pm)
Barometer30.17 in30.24 in (9:08 am)30.06 in (4:54 pm)
Wind Speed1.3 mph6.9 mph (4:54 pm)
Weather ElementAverage
Visibility4.1 mi
Wind DirectionENE (68 °)

Weather ElementTotal
Precipitation---
Cooling Degree Days3.6 (Base 65)
Growing Degree Days18.6 (Base 50)
Averaged from 55 records on October 5, 2013
WEATHER CONDITIONS BREAKOUT
WIND DIRECTION BREAKOUT
WEATHER BY HOUR - OCTOBER 5, 2013
[ °C ]   °F
Local TimeTemperatureDewpointHumidityBarometerVisibilityWind DirectionWind SpeedGust SpeedPrecipitationEventsConditions
12:54 AM60.1 °F59.0 °F96 %30.14 in8.0 miCalmScattered Clouds
1:02 AM60.8 °F59.0 °F94 %30.20 in6.0 miCalmMostly Cloudy
1:54 AM60.1 °F59.0 °F96 %30.14 in5.0 miCalmOvercast
2:16 AM59.0 °F57.2 °F94 %30.21 in2.5 miCalmOvercast
2:18 AM59.0 °F57.2 °F94 %30.21 in1.2 miCalmOvercast
2:23 AM59.0 °F59.0 °F100 %30.21 in0.2 miCalmFogFog
2:41 AM60.8 °F59.0 °F94 %30.21 in1.0 miCalmOvercast
2:44 AM60.8 °F59.0 °F94 %30.20 in2.0 miCalmOvercast
2:54 AM59.0 °F59.0 °F100 %30.14 in2.0 miCalmOvercast
3:02 AM59.0 °F57.2 °F94 %30.20 in6.0 miCalmOvercast
3:22 AM60.8 °F59.0 °F94 %30.19 in1.8 miCalmOvercast
3:25 AM60.8 °F59.0 °F94 %30.19 in1.2 miCalmOvercast
3:35 AM60.8 °F60.8 °F100 %30.19 in0.5 miCalmFogFog
3:54 AM60.1 °F60.1 °F100 %30.12 in0.2 miCalmFogFog
4:13 AM59.0 °F59.0 °F100 %30.19 in0.5 miNNW (340°)3.5 mphFogFog
4:25 AM57.2 °F57.2 °F100 %30.19 in1.0 miCalmMist
4:35 AM57.2 °F57.2 °F100 %30.19 in0.5 miNW (320°)3.5 mphFogFog
4:40 AM57.2 °F57.2 °F100 %30.19 in0.2 miCalmFogFog
4:49 AM57.2 °F57.2 °F100 %30.19 in0.5 miCalmFogFog
4:54 AM57.0 °F57.0 °F100 %30.13 in1.0 miCalmMist
4:59 AM57.2 °F57.2 °F100 %30.20 in2.0 miCalmMostly Cloudy
5:02 AM57.2 °F57.2 °F100 %30.20 in4.0 miCalmScattered Clouds
5:15 AM57.2 °F57.2 °F100 %30.20 in7.0 miCalmMostly Cloudy
5:44 AM57.2 °F57.2 °F100 %30.21 in1.8 miNNW (340°)3.5 mphOvercast
5:54 AM57.9 °F57.9 °F100 %30.15 in0.8 miNNW (330°)4.6 mphOvercast
6:01 AM57.2 °F57.2 °F100 %30.21 in0.8 miCalmMist
6:05 AM57.2 °F57.2 °F100 %30.22 in1.0 miCalmOvercast
6:13 AM57.2 °F57.2 °F100 %30.22 in0.8 miCalmMist
6:54 AM57.9 °F57.9 °F100 %30.17 in1.5 miNW (310°)3.5 mphOvercast
7:04 AM57.2 °F57.2 °F100 %30.22 in3.0 miCalmOvercast
7:10 AM57.2 °F57.2 °F100 %30.22 in1.5 miCalmOvercast
7:43 AM57.2 °F57.2 °F100 %30.23 in0.2 miCalmFogFog
7:54 AM57.9 °F57.9 °F100 %30.18 in0.2 miCalmFogFog
8:01 AM57.2 °F57.2 °F100 %30.23 in0.2 miCalmFogFog
8:44 AM59.0 °F59.0 °F100 %30.23 in0.8 miCalmMist
8:54 AM59.0 °F59.0 °F100 %30.19 in0.5 miNW (310°)3.5 mphFogFog
8:56 AM59.0 °F59.0 °F100 %30.23 in1.5 miCalmOvercast
9:08 AM60.8 °F59.0 °F94 %30.24 in3.0 miNW (320°)3.5 mphOvercast
9:39 AM60.8 °F60.8 °F100 %30.23 in7.0 miNNW (340°)4.6 mphMostly Cloudy
9:46 AM60.8 °F60.8 °F100 %30.23 in7.0 miNW (310°)4.6 mphScattered Clouds
9:54 AM62.1 °F60.1 °F93 %30.18 in3.0 miNW (310°)3.5 mphScattered Clouds
10:54 AM69.1 °F61.0 °F75 %30.16 in10.0 miCalmClear
11:54 AM73.9 °F62.1 °F66 %30.15 in10.0 miCalmClear
12:54 PM79.0 °F62.1 °F56 %30.13 in10.0 miCalmClear
1:54 PM80.1 °F57.9 °F47 %30.11 in10.0 miVariable5.8 mphClear
2:54 PM80.1 °F59.0 °F48 %30.08 in10.0 miSSW (200°)3.5 mphClear
3:54 PM79.0 °F62.1 °F56 %30.07 in10.0 miVariable4.6 mphClear
4:54 PM80.1 °F59.0 °F48 %30.06 in10.0 miVariable6.9 mphPartly Cloudy
5:54 PM78.1 °F60.1 °F54 %30.06 in10.0 miSSE (150°)6.9 mphClear
6:54 PM75.0 °F63.0 °F66 %30.06 in10.0 miSSE (160°)4.6 mphClear
7:54 PM71.1 °F63.0 °F75 %30.08 in10.0 miCalmClear
8:54 PM68.0 °F63.0 °F84 %30.10 in10.0 miCalmClear
9:54 PM64.9 °F63.0 °F93 %30.11 in10.0 miCalmClear
10:54 PM64.0 °F63.0 °F96 %30.09 in8.0 miCalmClear
11:54 PM63.0 °F62.1 °F97 %30.08 in8.0 miCalmClear
Hourly data recorded from KAVL, located miles away from Asheville, North Carolina







STORIES FROM OUR PARTNERS